EW4713 Weather Reports


time (UTC)temp
C
wind
direction
speed
KPH
gust
KPH
rain 1hr
cm
rain 24hr
cm
rain mn
cm
humidity
%
barometer
mb
20260504224101 7 99 6.4 30.6 0.00 0.00 0.00 52 1002.9
20260504223601 6 150 3.2 30.6 0.00 0.00 0.00 52 1003.0
20260504222601 5 134 6.4 20.9 0.00 0.00 0.00 54 1003.1
20260504222100 6 95 0.0 20.9 0.00 0.00 0.00 52 1003.1
20260504221601 6 135 9.7 20.9 0.00 0.00 0.00 52 1003.0
20260504220601 6 110 4.8 19.3 0.00 0.00 0.00 52 1002.9
20260504220101 6 138 8.0 19.3 0.00 0.00 0.00 51 1002.9
20260504215602 6 93 4.8 19.3 0.00 0.00 0.00 50 1002.9
20260504215101 6 155 4.8 20.9 0.00 0.00 0.00 51 1002.9
20260504214601 6 75 11.3 20.9 0.00 0.00 0.00 51 1002.9
20260504213101 6 153 6.4 19.3 0.00 0.00 0.00 52 1002.7
20260504212600 6 140 1.6 14.5 0.00 0.00 0.00 52 1002.7
20260504212102 6 199 4.8 17.7 0.00 0.00 0.00 51 1002.8
20260504211606 6 119 6.4 22.5 0.00 0.00 0.00 52 1002.6
20260504211105 6 162 8.0 22.5 0.00 0.00 0.00 52 1002.3
20260504205603 6 164 8.0 16.1 0.00 0.00 0.00 51 1002.2
20260504204105 6 166 6.4 19.3 0.00 0.00 0.00 50 1002.3
20260504203104 6 154 6.4 20.9 0.00 0.00 0.00 49 1002.2
20260504202600 8 81 16.1 19.3 0.00 0.00 0.00 50 1002.1
20260504202100 7 158 6.4 17.7 0.00 0.00 0.00 47 1002.3
20260504201601 7 104 3.2 17.7 0.00 0.00 0.00 50 1002.2
20260504201101 6 155 4.8 22.5 0.00 0.00 0.00 51 1002.2
20260504200603 6 66 9.7 22.5 0.00 0.00 0.00 53 1002.2
20260504195602 6 96 4.8 27.4 0.00 0.00 0.00 55 1002.2
20260504195101 5 111 14.5 27.4 0.00 0.00 0.00 53 1001.9
20260504194601 7 103 3.2 25.7 0.00 0.00 0.00 53 1002.0
20260504194103 6 156 11.3 25.7 0.00 0.00 0.00 54 1002.1
20260504193601 5 138 8.0 25.7 0.00 0.00 0.00 56 1002.2
20260504193103 5 148 11.3 25.7 0.00 0.00 0.00 58 1002.2
20260504192601 5 138 8.0 22.5 0.00 0.00 0.00 58 1002.2
20260504191600 5 131 4.8 20.9 0.00 0.00 0.00 61 1002.1
20260504191103 4 124 6.4 24.1 0.00 0.00 0.00 61 1002.1
20260504190601 4 174 8.0 24.1 0.00 0.00 0.00 62 1002.2
20260504185600 5 139 6.4 24.1 0.00 0.00 0.00 62 1002.0
20260504185100 5 151 6.4 24.1 0.00 0.00 0.00 62 1001.8
20260504184602 5 149 4.8 19.3 0.00 0.00 0.00 64 1001.9
20260504183605 5 127 3.2 17.7 0.00 0.00 0.00 62 1001.7
20260504183103 5 144 6.4 27.4 0.00 0.00 0.00 62 1001.6
20260504182604 5 120 4.8 27.4 0.00 0.00 0.00 67 1001.6
20260504182103 5 155 6.4 22.5 0.00 0.00 0.00 65 1001.7
20260504181604 5 49 1.6 19.3 0.00 0.00 0.00 65 1001.1
20260504181104 5 133 4.8 20.9 0.00 0.00 0.00 66 1001.4
20260504175604 5 166 6.4 14.5 0.00 0.00 0.00 66 1000.9
20260504174602 5 154 9.7 30.6 0.00 0.00 0.00 70 1001.2
20260504174102 4 125 6.4 30.6 0.00 0.00 0.00 71 1001.1
20260504173604 4 133 3.2 17.7 0.00 0.00 0.00 73 1001.2
20260504172601 4 134 6.4 24.1 0.00 0.00 0.00 72 1001.4
20260504172101 3 144 6.4 27.4 0.00 0.00 0.00 75 1001.1
20260504171102 4 125 6.4 16.1 0.00 0.00 0.00 73 1000.8
20260504170601 4 158 6.4 29.0 0.00 0.00 0.00 76 1000.8
20260504151100 4 90 1.6 12.9 0.00 0.00 0.00 78 999.6
20260504150559 3 109 3.2 14.5 0.00 0.00 0.00 80 999.5
20260504140537 3 169 9.7 17.7 0.00 0.00 0.00 84 998.3
20260504130531 4 197 4.8 11.3 0.00 0.00 0.00 87 997.3
20260504110511 6 192 0.0 9.7 0.00 0.00 0.00 89 994.7
20260504100510 5 164 0.0 11.3 0.05 0.00 0.00 97 993.8
20260504082003 8 53 6.4 20.9 0.00 0.00 0.00 76 994.6
20260504081000 9 180 1.6 25.7 0.00 0.00 0.00 72 994.9
20260504080500 10 135 16.1 16.1 0.00 0.00 0.00 70 995.1
20260504050500 16 71 3.2 12.9 0.00 0.00 0.00 38 994.4
20260504045504 16 77 3.2 14.5 0.00 0.00 0.00 38 993.8
20260504045003 16 160 1.6 14.5 0.00 0.00 0.00 37 993.8
20260504044505 16 117 3.2 14.5 0.00 0.00 0.00 37 993.6
20260504042504 16 344 3.2 16.1 0.00 0.00 0.00 38 993.8
20260504042004 15 29 8.0 17.7 0.00 0.00 0.00 38 993.8
20260504041506 15 10 8.0 24.1 0.00 0.00 0.00 38 993.9
20260504041005 15 60 3.2 24.1 0.00 0.00 0.00 38 994.3
20260504040503 15 99 4.8 11.3 0.00 0.00 0.00 38 994.4
20260504040006 15 22 8.0 11.3 0.00 0.00 0.00 38 994.6
20260504035505 15 105 1.6 14.5 0.00 0.00 0.00 38 994.8
20260504035007 15 24 6.4 14.5 0.00 0.00 0.00 38 995.0
20260504034002 15 84 0.0 9.7 0.00 0.00 0.00 38 994.9
20260504033502 15 126 1.6 16.1 0.00 0.00 0.00 38 995.1
20260504033000 16 90 6.4 16.1 0.00 0.00 0.00 38 995.3
20260504032502 15 299 3.2 9.7 0.00 0.00 0.00 38 995.5
20260504032002 16 7 1.6 9.7 0.00 0.00 0.00 38 995.7
20260504031501 15 106 4.8 11.3 0.00 0.00 0.00 38 995.7
20260504031000 16 123 3.2 19.3 0.00 0.00 0.00 38 995.8
20260504030001 15 106 3.2 11.3 0.00 0.00 0.00 38 996.2
20260504025527 16 90 0.0 11.3 0.00 0.00 0.00 38 996.1
20260504025005 16 36 3.2 9.7 0.00 0.00 0.00 38 996.6
20260504024502 16 30 4.8 9.7 0.00 0.00 0.00 38 996.8
20260504024001 16 340 6.4 9.7 0.00 0.00 0.00 37 996.8
20260504023500 16 26 1.6 9.7 0.00 0.00 0.00 37 997.0
20260504022504 16 323 0.0 12.9 0.00 0.00 0.00 37 997.0
20260504022001 16 69 1.6 12.9 0.00 0.00 0.00 37 997.2
20260504021503 16 90 3.2 14.5 0.00 0.00 0.00 37 997.3
20260504021000 16 35 0.0 14.5 0.00 0.00 0.00 37 997.5
20260504020503 16 21 0.0 8.0 0.00 0.00 0.00 38 997.5
20260504020000 16 23 0.0 8.0 0.00 0.00 0.00 37 997.8
20260504014502 17 114 1.6 11.3 0.00 0.00 0.00 37 998.0
20260504014002 17 23 0.0 11.3 0.00 0.00 0.00 37 998.3
20260504013501 17 120 6.4 6.4 0.00 0.00 0.00 37 998.2
20260504013000 17 75 3.2 9.7 0.00 0.00 0.00 37 998.4
20260504012500 17 90 0.0 14.5 0.00 0.00 0.00 36 998.5
20260504012005 17 123 3.2 14.5 0.00 0.00 0.00 36 998.4
20260504011505 17 61 3.2 11.3 0.00 0.00 0.00 36 998.4
20260504011003 17 66 1.6 11.3 0.00 0.00 0.00 36 998.7
20260504010504 17 81 4.8 14.5 0.00 0.00 0.00 35 998.8
20260504005502 18 63 4.8 11.3 0.00 0.00 0.00 35 999.2
20260504004501 19 139 9.7 11.3 0.00 0.00 0.00 33 999.6
20260504004002 19 63 0.0 11.3 0.00 0.00 0.00 33 999.5
20260504003500 18 80 3.2 11.3 0.00 0.00 0.00 33 999.8
20260504003001 18 96 4.8 14.5 0.00 0.00 0.00 33 999.6
20260504002502 18 90 3.2 14.5 0.00 0.00 0.00 33 999.8
20260504002003 18 0 0.0 14.5 0.00 0.00 0.00 34 1000.0
20260504001501 18 137 6.4 14.5 0.00 0.00 0.00 33 1000.1
20260504001001 18 94 3.2 11.3 0.00 0.00 0.00 33 1000.0
20260504000501 18 80 6.4 11.3 0.00 0.00 0.00 33 1000.4
20260503235500 19 172 4.8 16.1 0.00 0.00 0.00 32 1000.6
20260503235002 18 50 3.2 19.3 0.00 0.00 0.00 32 1000.4
20260503234501 19 70 4.8 19.3 0.00 0.00 0.00 33 1000.7
20260503234001 19 122 6.4 16.1 0.00 0.00 0.00 32 1000.6
20260503233503 19 12 0.0 12.9 0.00 0.00 0.00 32 1000.9
20260503233002 20 63 1.6 17.7 0.00 0.00 0.00 31 1000.7
20260503232501 20 118 9.7 22.5 0.00 0.00 0.00 30 1001.1
20260503232000 20 32 4.8 22.5 0.00 0.00 0.00 30 1001.5
20260503231501 20 90 6.4 14.5 0.00 0.00 0.00 29 1001.6
20260503231001 20 19 3.2 14.5 0.00 0.00 0.00 30 1001.6
20260503230501 20 132 9.7 14.5 0.00 0.00 0.00 31 1001.6
20260503230002 21 77 1.6 16.1 0.00 0.00 0.00 30 1001.9
20260503225503 20 81 6.4 16.1 0.00 0.00 0.00 30 1001.8
20260503225001 21 110 3.2 14.5 0.00 0.00 0.00 31 1002.1